Location: Unspecified
(49.9500°N, 0.0000°E)
Time: 02:32:16
(UTC+00:00)

Cosmos 923 - Visible Passes

Search period start: 04 April 2026 00:00
Search period end: 14 April 2026 00:00
Orbit: 774 x 790 km, 74.0° (Epoch: 29 March)

Date Brightness Start Highest point End Pass type
(mag) Time Alt. Az. Time Alt. Az. Time Alt. Az.
4 Apr 8.5 01:24:10 11° NW 01:25:49 12° NW 01:27:50 10° NNW visible
4 Apr 8.2 21:30:24 12° ENE 21:30:24 12° ENE 21:31:01 10° NE visible
4 Apr 7.1 23:10:55 41° N 23:10:55 41° N 23:14:25 10° NNE visible
5 Apr 8.3 00:51:26 15° NW 00:52:31 16° NW 00:55:42 10° N visible
5 Apr 7.0 22:38:09 41° NNE 22:38:09 41° NNE 22:41:33 10° NNE visible
6 Apr 8.0 00:18:40 20° WNW 00:19:17 21° NW 00:23:15 10° N visible
6 Apr 7.0 22:05:19 36° NE 22:05:19 36° NE 22:08:36 10° NNE visible
6 Apr 7.6 23:45:49 28° WNW 23:46:08 28° NW 23:50:40 10° N visible
7 Apr 7.1 21:32:24 30° ENE 21:32:24 30° ENE 21:35:33 10° NE visible
7 Apr 7.1 23:12:54 38° WNW 23:13:04 38° WNW 23:18:00 10° NNE visible
8 Apr 7.3 20:59:22 23° ENE 20:59:22 23° ENE 21:02:19 10° NE visible
8 Apr 6.5 22:39:52 54° WNW 22:40:03 54° WNW 22:45:16 10° NNE visible
9 Apr 8.7 00:21:18 10° WNW 00:23:42 13° NW 00:26:07 10° N visible
9 Apr 7.6 20:26:13 17° E 20:26:13 17° E 20:28:49 10° NE visible
9 Apr 6.0 22:06:42 72° WSW 22:07:08 78° WNW 22:12:27 10° NNE visible
9 Apr 8.5 23:47:11 11° W 23:50:25 17° NW 23:53:51 10° N visible
10 Apr 7.9 19:52:53 11° E 19:52:53 11° E 19:54:29 10° ENE visible
10 Apr 5.9 21:33:21 59° S 21:34:16 73° ESE 21:39:33 10° NNE visible
10 Apr 8.1 23:13:49 13° W 23:17:13 23° NW 23:21:22 10° N visible
11 Apr 9.2 04:31:59 10° NNE 04:33:04 11° NE 04:34:10 10° NE visible
11 Apr 6.2 20:59:45 36° SSE 21:01:29 50° ESE 21:06:34 10° NNE visible
11 Apr 7.7 22:40:11 13° WSW 22:44:05 30° NW 22:48:45 10° N visible
12 Apr 6.7 20:25:39 18° SSE 20:28:46 34° ESE 20:33:28 10° NE visible
12 Apr 7.1 22:06:03 10° SW 22:11:01 42° WNW 22:16:03 10° NNE visible
12 Apr 9.0 23:53:46 10° NW 23:54:56 11° NW 23:56:06 10° NNW visible
13 Apr 7.1 19:52:02 10° SSE 19:56:07 23° E 20:00:11 10° NE visible
13 Apr 6.5 21:32:49 10° SW 21:38:02 60° WNW 21:43:17 10° NNE visible
13 Apr 8.8 23:18:51 10° WNW 23:21:36 14° NW 23:24:20 10° N visible
